CFG2MW LEPA-EDDF

Flight info

Callsign CFG2MW
Flight time 2h 14m
Altitude FL380
Route ISTE5B ISTER LUNOR NESUL NEGAT OMEDA RAPUR TORTU ERTEV TAGIP BRENO KONIN ERNAS T161 DEBHI DEBH1B
Aircraft A20N/M-SBDE3FGHIJ1J4J7LORVWXYZ/SB2D1G1

Departure

Time 2026-04-17 07:29
Airport Palma de Mallorca Airport (LEPA)

Arrival

Time 2026-04-17 09:44
Airport Frankfurt Main Airport (EDDF)
Time Latitude Longitude Altitude Speed Heading
2026-04-17 07:19 39.55261 2.73467 37 ft 0 kts 238°
2026-04-17 07:22 39.55264 2.73473 36 ft 2 kts 238°
2026-04-17 07:22 39.55272 2.73489 36 ft 2 kts 239°
2026-04-17 07:22 39.55279 2.73507 37 ft 2 kts 257°
2026-04-17 07:23 39.55281 2.73526 37 ft 2 kts 275°
2026-04-17 07:23 39.55277 2.73545 37 ft 2 kts 295°
2026-04-17 07:23 39.55269 2.73561 37 ft 2 kts 314°
2026-04-17 07:23 39.55262 2.73569 38 ft 1 kts 326°
2026-04-17 07:24 39.55257 2.73573 38 ft 0 kts 328°
2026-04-17 07:25 39.55267 2.73565 37 ft 3 kts 328°
2026-04-17 07:25 39.55294 2.73544 37 ft 6 kts 328°
2026-04-17 07:25 39.55342 2.73505 36 ft 10 kts 328°
2026-04-17 07:26 39.55410 2.73462 35 ft 13 kts 353°
2026-04-17 07:26 39.55481 2.73532 34 ft 14 kts 59°
2026-04-17 07:26 39.55563 2.73544 33 ft 15 kts 336°
2026-04-17 07:26 39.55671 2.73538 32 ft 19 kts 44°
2026-04-17 07:27 39.55744 2.73682 32 ft 19 kts 65°
2026-04-17 07:27 39.55809 2.73834 32 ft 19 kts 61°
2026-04-17 07:27 39.55879 2.73982 33 ft 19 kts 58°
2026-04-17 07:27 39.55949 2.74129 34 ft 19 kts 59°
2026-04-17 07:28 39.56042 2.74247 35 ft 19 kts 37°
2026-04-17 07:28 39.56150 2.74351 35 ft 19 kts 35°
2026-04-17 07:28 39.56247 2.74307 35 ft 18 kts 262°
2026-04-17 07:28 39.56122 2.74065 35 ft 65 kts 241°
2026-04-17 07:29 39.55757 2.73290 37 ft 134 kts 238°
2026-04-17 07:29 39.55181 2.72057 198 ft 173 kts 239°
2026-04-17 07:29 39.54559 2.70769 914 ft 172 kts 239°
2026-04-17 07:29 39.53938 2.69461 1656 ft 174 kts 239°
2026-04-17 07:30 39.53298 2.68112 2252 ft 184 kts 239°
2026-04-17 07:30 39.52600 2.66646 2742 ft 200 kts 239°
2026-04-17 07:30 39.51842 2.65062 3204 ft 216 kts 239°
2026-04-17 07:30 39.51038 2.63384 3801 ft 226 kts 239°
2026-04-17 07:31 39.50186 2.61622 4518 ft 233 kts 237°
2026-04-17 07:31 39.49102 2.60060 5202 ft 243 kts 219°
2026-04-17 07:31 39.47645 2.58865 5824 ft 254 kts 211°
2026-04-17 07:31 39.46079 2.57724 6457 ft 266 kts 211°
2026-04-17 07:32 39.44421 2.56532 6978 ft 282 kts 209°
2026-04-17 07:32 39.42586 2.55606 7759 ft 289 kts 193°
2026-04-17 07:32 39.40596 2.55546 8558 ft 292 kts 168°
2026-04-17 07:32 39.38747 2.56610 9299 ft 295 kts 141°
2026-04-17 07:33 39.37422 2.58597 10012 ft 297 kts 117°
2026-04-17 07:33 39.36529 2.60999 10684 ft 303 kts 117°
2026-04-17 07:33 39.35376 2.63350 11057 ft 321 kts 126°
2026-04-17 07:33 39.33896 2.65594 11380 ft 339 kts 132°
2026-04-17 07:34 39.32206 2.67813 11683 ft 358 kts 134°
2026-04-17 07:34 39.30386 2.70073 12102 ft 370 kts 135°
2026-04-17 07:34 39.28515 2.72383 12763 ft 374 kts 133°
2026-04-17 07:34 39.26988 2.75053 13414 ft 374 kts 114°
2026-04-17 07:35 39.26228 2.78212 14077 ft 372 kts 95°
2026-04-17 07:35 39.26084 2.81517 14739 ft 373 kts 90°
2026-04-17 07:35 39.25979 2.84858 15347 ft 377 kts 90°
2026-04-17 07:35 39.26150 2.88199 15918 ft 378 kts 74°
2026-04-17 07:36 39.27116 2.91311 16532 ft 376 kts 59°
2026-04-17 07:36 39.28457 2.94224 17136 ft 378 kts 56°
2026-04-17 07:36 39.29847 2.97109 17709 ft 383 kts 56°
2026-04-17 07:36 39.31232 3.00038 18294 ft 386 kts 57°
2026-04-17 07:37 39.32605 3.03009 18869 ft 389 kts 57°
2026-04-17 07:37 39.33974 3.06018 19425 ft 393 kts 57°
2026-04-17 07:37 39.35341 3.09052 19956 ft 394 kts 58°
2026-04-17 07:37 39.36711 3.12115 20462 ft 398 kts 58°
2026-04-17 07:38 39.38102 3.15240 20996 ft 402 kts 58°
2026-04-17 07:38 39.39492 3.18363 21524 ft 405 kts 58°
2026-04-17 07:38 39.40888 3.21505 22038 ft 408 kts 58°
2026-04-17 07:38 39.42297 3.24675 22545 ft 411 kts 58°
2026-04-17 07:39 39.43732 3.27862 23044 ft 413 kts 57°
2026-04-17 07:39 39.45202 3.31050 23535 ft 416 kts 57°
2026-04-17 07:39 39.46685 3.34256 24013 ft 419 kts 57°
2026-04-17 07:39 39.48186 3.37504 24484 ft 422 kts 57°
2026-04-17 07:40 39.49688 3.40763 24954 ft 425 kts 57°
2026-04-17 07:40 39.51197 3.44044 25413 ft 428 kts 57°
2026-04-17 07:40 39.52715 3.47350 25863 ft 430 kts 57°
2026-04-17 07:40 39.54237 3.50670 26302 ft 433 kts 57°
2026-04-17 07:41 39.55771 3.54020 26736 ft 435 kts 57°
2026-04-17 07:41 39.57311 3.57387 27150 ft 438 kts 57°
2026-04-17 07:41 39.58870 3.60802 27554 ft 440 kts 57°
2026-04-17 07:41 39.60424 3.64208 27943 ft 443 kts 57°
2026-04-17 07:42 39.61983 3.67629 28313 ft 445 kts 57°
2026-04-17 07:42 39.63548 3.71068 28657 ft 446 kts 57°
2026-04-17 07:42 39.65120 3.74524 28960 ft 448 kts 58°
2026-04-17 07:42 39.66700 3.78004 29264 ft 451 kts 58°
2026-04-17 07:43 39.68282 3.81491 29588 ft 451 kts 58°
2026-04-17 07:43 39.69873 3.85006 29955 ft 450 kts 58°
2026-04-17 07:43 39.71448 3.88487 30325 ft 449 kts 57°
2026-04-17 07:43 39.73020 3.91964 30690 ft 448 kts 57°
2026-04-17 07:44 39.74583 3.95425 31042 ft 447 kts 57°
2026-04-17 07:44 39.76144 3.98885 31395 ft 446 kts 57°
2026-04-17 07:44 39.77701 4.02339 31745 ft 445 kts 57°
2026-04-17 07:44 39.79265 4.05814 32094 ft 444 kts 57°
2026-04-17 07:45 39.80812 4.09253 32436 ft 442 kts 57°
2026-04-17 07:45 39.82353 4.12684 32761 ft 441 kts 57°
2026-04-17 07:45 39.83890 4.16110 33091 ft 441 kts 57°
2026-04-17 07:45 39.85424 4.19534 33429 ft 439 kts 57°
2026-04-17 07:46 39.86952 4.22946 33762 ft 438 kts 57°
2026-04-17 07:46 39.88480 4.26349 34085 ft 437 kts 57°
2026-04-17 07:46 39.90002 4.29738 34399 ft 436 kts 57°
2026-04-17 07:46 39.91531 4.33149 34707 ft 435 kts 57°
2026-04-17 07:47 39.93045 4.36530 35011 ft 433 kts 57°
2026-04-17 07:47 39.94551 4.39896 35299 ft 432 kts 57°
2026-04-17 07:47 39.96055 4.43261 35567 ft 431 kts 57°
2026-04-17 07:47 39.97553 4.46618 35822 ft 431 kts 57°
2026-04-17 07:48 39.99052 4.49979 36069 ft 430 kts 57°
2026-04-17 07:48 40.00549 4.53341 36297 ft 430 kts 57°
2026-04-17 07:48 40.02051 4.56719 36502 ft 430 kts 57°
2026-04-17 07:48 40.03541 4.60075 36685 ft 430 kts 57°
2026-04-17 07:49 40.05032 4.63437 36853 ft 431 kts 56°
2026-04-17 07:49 40.06527 4.66808 37009 ft 431 kts 57°
2026-04-17 07:49 40.08021 4.70176 37146 ft 432 kts 57°
2026-04-17 07:49 40.09521 4.73556 37274 ft 433 kts 57°
2026-04-17 07:50 40.11036 4.76974 37400 ft 434 kts 57°
2026-04-17 07:50 40.12540 4.80373 37514 ft 435 kts 57°
2026-04-17 07:50 40.14046 4.83779 37615 ft 436 kts 57°
2026-04-17 07:50 40.15554 4.87194 37719 ft 436 kts 57°
2026-04-17 07:51 40.17062 4.90616 37823 ft 437 kts 57°
2026-04-17 07:51 40.18572 4.94046 37923 ft 437 kts 57°
2026-04-17 07:51 40.21591 5.00908 38110 ft 437 kts 57°
2026-04-17 07:52 40.24622 5.07816 38229 ft 439 kts 57°
2026-04-17 07:52 40.27639 5.14711 38249 ft 439 kts 57°
2026-04-17 07:53 40.30653 5.21615 38240 ft 438 kts 57°
2026-04-17 07:53 40.33667 5.28533 38215 ft 437 kts 57°
2026-04-17 07:54 40.36662 5.35422 38210 ft 437 kts 57°
2026-04-17 07:54 40.39656 5.42318 38211 ft 437 kts 57°
2026-04-17 07:55 40.42643 5.49213 38213 ft 437 kts 57°
2026-04-17 07:55 40.45635 5.56142 38215 ft 437 kts 57°
2026-04-17 07:56 40.48609 5.63045 38213 ft 436 kts 57°
2026-04-17 07:56 40.51576 5.69948 38207 ft 436 kts 57°
2026-04-17 07:57 40.54549 5.76881 38201 ft 436 kts 57°
2026-04-17 07:57 40.57508 5.83791 38197 ft 436 kts 57°
2026-04-17 07:58 40.60463 5.90711 38195 ft 436 kts 57°
2026-04-17 07:58 40.63412 5.97635 38194 ft 436 kts 57°
2026-04-17 07:59 40.66363 6.04580 38188 ft 436 kts 57°
2026-04-17 07:59 40.69303 6.11515 38179 ft 436 kts 57°
2026-04-17 08:00 40.72236 6.18450 38181 ft 435 kts 57°
2026-04-17 08:00 40.75174 6.25410 38187 ft 435 kts 57°
2026-04-17 08:01 40.78103 6.32365 38186 ft 436 kts 57°
2026-04-17 08:01 40.81024 6.39318 38184 ft 436 kts 57°
2026-04-17 08:02 40.83941 6.46278 38182 ft 436 kts 57°
2026-04-17 08:02 40.86865 6.53271 38179 ft 436 kts 57°
2026-04-17 08:03 40.89776 6.60250 38178 ft 436 kts 57°
2026-04-17 08:03 40.92691 6.67258 38177 ft 436 kts 58°
2026-04-17 08:04 40.95612 6.74295 38177 ft 437 kts 58°
2026-04-17 08:04 40.98512 6.81296 38175 ft 437 kts 58°
2026-04-17 08:05 41.01408 6.88313 38175 ft 436 kts 58°
2026-04-17 08:05 41.04301 6.95335 38174 ft 436 kts 58°
2026-04-17 08:06 41.07200 7.02386 38174 ft 436 kts 58°
2026-04-17 08:06 41.10085 7.09415 38174 ft 436 kts 58°
2026-04-17 08:07 41.12967 7.16456 38174 ft 436 kts 58°
2026-04-17 08:07 41.15853 7.23524 38174 ft 436 kts 58°
2026-04-17 08:08 41.18726 7.30579 38175 ft 436 kts 58°
2026-04-17 08:08 41.21590 7.37628 38175 ft 436 kts 58°
2026-04-17 08:09 41.24450 7.44683 38176 ft 436 kts 58°
2026-04-17 08:09 41.27316 7.51768 38178 ft 436 kts 58°
2026-04-17 08:10 41.30168 7.58840 38179 ft 436 kts 58°
2026-04-17 08:10 41.33017 7.65920 38180 ft 437 kts 59°
2026-04-17 08:11 41.35871 7.73038 38181 ft 437 kts 59°
2026-04-17 08:11 41.39060 7.79826 38181 ft 433 kts 49°
2026-04-17 08:12 41.43211 7.85512 38183 ft 429 kts 37°
2026-04-17 08:12 41.48136 7.89860 38185 ft 427 kts 26°
2026-04-17 08:13 41.53570 7.93005 38187 ft 426 kts 21°
2026-04-17 08:14 41.61794 7.97413 38187 ft 426 kts 20°
2026-04-17 08:14 41.67272 8.00361 38186 ft 426 kts 20°
2026-04-17 08:15 41.72772 8.03329 38186 ft 427 kts 21°
2026-04-17 08:15 41.78258 8.06298 38185 ft 427 kts 21°
2026-04-17 08:16 41.83743 8.09273 38187 ft 427 kts 21°
2026-04-17 08:16 41.89243 8.12264 38191 ft 427 kts 21°
2026-04-17 08:17 41.94728 8.15250 38192 ft 427 kts 21°
2026-04-17 08:17 42.00207 8.18246 38189 ft 427 kts 21°
2026-04-17 08:18 42.05692 8.21248 38185 ft 427 kts 21°
2026-04-17 08:18 42.11193 8.24262 38184 ft 427 kts 21°
2026-04-17 08:19 42.16682 8.27274 38182 ft 427 kts 21°
2026-04-17 08:19 42.22168 8.30289 38180 ft 427 kts 21°
2026-04-17 08:20 42.27662 8.33314 38178 ft 427 kts 21°
2026-04-17 08:20 42.33147 8.36341 38177 ft 427 kts 21°
2026-04-17 08:21 42.38627 8.39375 38174 ft 427 kts 21°
2026-04-17 08:21 42.44104 8.42412 38172 ft 428 kts 21°
2026-04-17 08:22 42.49604 8.45466 38169 ft 428 kts 20°
2026-04-17 08:22 42.55087 8.48516 38167 ft 428 kts 20°
2026-04-17 08:23 42.60564 8.51569 38166 ft 428 kts 20°
2026-04-17 08:23 42.66065 8.54641 38165 ft 428 kts 20°
2026-04-17 08:24 42.71548 8.57709 38165 ft 428 kts 20°
2026-04-17 08:24 42.77032 8.60783 38164 ft 428 kts 20°
2026-04-17 08:25 42.82515 8.63861 38165 ft 428 kts 20°
2026-04-17 08:25 42.88026 8.66963 38165 ft 429 kts 21°
2026-04-17 08:26 42.93515 8.70059 38165 ft 429 kts 21°
2026-04-17 08:26 42.99013 8.73166 38166 ft 430 kts 21°
2026-04-17 08:27 43.04532 8.76290 38166 ft 430 kts 21°
2026-04-17 08:27 43.10034 8.79410 38167 ft 430 kts 21°
2026-04-17 08:28 43.15556 8.82547 38168 ft 431 kts 21°
2026-04-17 08:28 43.21068 8.85684 38168 ft 431 kts 21°
2026-04-17 08:29 43.26599 8.88838 38167 ft 431 kts 21°
2026-04-17 08:29 43.32134 8.91904 38165 ft 430 kts 18°
2026-04-17 08:30 43.37844 8.94192 38167 ft 429 kts 11°
2026-04-17 08:30 43.43722 8.95524 38169 ft 428 kts
2026-04-17 08:31 43.49629 8.95896 38171 ft 427 kts 359°
2026-04-17 08:31 43.55550 8.95918 38172 ft 427 kts
2026-04-17 08:32 43.61443 8.96839 38172 ft 429 kts
2026-04-17 08:32 43.67214 8.98968 38169 ft 431 kts 18°
2026-04-17 08:33 43.72708 9.02255 38166 ft 434 kts 25°
2026-04-17 08:33 43.78037 9.06094 38162 ft 434 kts 25°
2026-04-17 08:34 43.83381 9.09988 38160 ft 434 kts 25°
2026-04-17 08:34 43.88705 9.13868 38160 ft 434 kts 25°
2026-04-17 08:35 43.94022 9.17747 38160 ft 434 kts 25°
2026-04-17 08:35 43.99341 9.21632 38160 ft 434 kts 25°
2026-04-17 08:36 44.04674 9.25534 38160 ft 434 kts 25°
2026-04-17 08:36 44.09984 9.29429 38165 ft 434 kts 25°
2026-04-17 08:37 44.15349 9.33371 38168 ft 435 kts 25°
2026-04-17 08:37 44.20730 9.37333 38164 ft 436 kts 25°
2026-04-17 08:38 44.26071 9.41274 38161 ft 436 kts 25°
2026-04-17 08:38 44.31405 9.45217 38172 ft 436 kts 25°
2026-04-17 08:39 44.36734 9.49164 38150 ft 435 kts 25°
2026-04-17 08:39 44.39420 9.51157 38049 ft 435 kts 25°
2026-04-17 08:39 44.42082 9.53134 37973 ft 435 kts 25°
2026-04-17 08:40 44.47400 9.57091 38027 ft 435 kts 25°
2026-04-17 08:40 44.52716 9.61054 38170 ft 435 kts 25°
2026-04-17 08:41 44.58057 9.65044 38165 ft 435 kts 26°
2026-04-17 08:41 44.63406 9.69049 38153 ft 436 kts 26°
2026-04-17 08:42 44.68740 9.73051 38135 ft 436 kts 26°
2026-04-17 08:42 44.74067 9.77055 38160 ft 436 kts 25°
2026-04-17 08:43 44.79408 9.81079 38284 ft 436 kts 25°
2026-04-17 08:43 44.84737 9.85103 38360 ft 437 kts 25°
2026-04-17 08:44 44.90070 9.89138 38298 ft 437 kts 25°
2026-04-17 08:44 44.95422 9.93196 38219 ft 437 kts 25°
2026-04-17 08:45 45.00751 9.97245 38196 ft 437 kts 25°
2026-04-17 08:45 45.06094 10.01311 38188 ft 438 kts 25°
2026-04-17 08:46 45.11446 10.05392 38188 ft 438 kts 25°
2026-04-17 08:46 45.16831 10.09509 38188 ft 438 kts 25°
2026-04-17 08:47 45.22178 10.13607 38189 ft 438 kts 25°
2026-04-17 08:47 45.27521 10.17711 38199 ft 438 kts 25°
2026-04-17 08:48 45.32882 10.21837 38201 ft 438 kts 25°
2026-04-17 08:48 45.38224 10.25955 38198 ft 438 kts 25°
2026-04-17 08:49 45.43575 10.30091 38196 ft 439 kts 25°
2026-04-17 08:49 45.48943 10.34249 38196 ft 439 kts 25°
2026-04-17 08:50 45.54314 10.38418 38204 ft 439 kts 25°
2026-04-17 08:50 45.59690 10.42598 38222 ft 440 kts 25°
2026-04-17 08:51 45.65041 10.46770 38242 ft 440 kts 25°
2026-04-17 08:51 45.70422 10.50975 38249 ft 440 kts 25°
2026-04-17 08:52 45.75780 10.55171 38222 ft 440 kts 25°
2026-04-17 08:52 45.81130 10.59371 38049 ft 440 kts 25°
2026-04-17 08:52 45.83809 10.61477 37861 ft 440 kts 25°
2026-04-17 08:53 45.86480 10.63579 37582 ft 440 kts 25°
2026-04-17 08:53 45.89167 10.65697 37343 ft 438 kts 25°
2026-04-17 08:53 45.91846 10.67805 37361 ft 438 kts 24°
2026-04-17 08:53 45.94547 10.69755 37532 ft 433 kts 21°
2026-04-17 08:54 45.97257 10.71538 37795 ft 427 kts 21°
2026-04-17 08:54 45.99948 10.73275 38096 ft 422 kts 20°
2026-04-17 08:54 46.02613 10.74987 38271 ft 421 kts 20°
2026-04-17 08:55 46.07998 10.78450 38404 ft 426 kts 20°
2026-04-17 08:55 46.13440 10.81964 38437 ft 433 kts 20°
2026-04-17 08:56 46.18982 10.85556 38432 ft 438 kts 20°
2026-04-17 08:56 46.24539 10.89169 38369 ft 439 kts 20°
2026-04-17 08:57 46.30114 10.92802 38332 ft 439 kts 20°
2026-04-17 08:57 46.35663 10.96423 38308 ft 439 kts 20°
2026-04-17 08:58 46.41211 11.00052 38288 ft 438 kts 20°
2026-04-17 08:58 46.46783 11.03705 38262 ft 438 kts 20°
2026-04-17 08:59 46.52335 11.07352 38202 ft 438 kts 20°
2026-04-17 08:59 46.57872 11.11000 38273 ft 438 kts 20°
2026-04-17 09:00 46.63398 11.14645 38369 ft 438 kts 20°
2026-04-17 09:00 46.68961 11.18324 38244 ft 438 kts 20°
2026-04-17 09:00 46.71728 11.20157 38118 ft 438 kts 20°
2026-04-17 09:01 46.74495 11.21992 37965 ft 437 kts 20°
2026-04-17 09:01 46.77258 11.23827 37776 ft 437 kts 20°
2026-04-17 09:01 46.80016 11.25662 37600 ft 437 kts 20°
2026-04-17 09:01 46.82774 11.27498 37418 ft 437 kts 20°
2026-04-17 09:02 46.85545 11.29346 37240 ft 436 kts 20°
2026-04-17 09:02 46.88293 11.31179 37052 ft 436 kts 20°
2026-04-17 09:02 46.91062 11.32940 36859 ft 435 kts 17°
2026-04-17 09:02 46.93890 11.34435 36671 ft 433 kts 13°
2026-04-17 09:03 46.96767 11.35644 36489 ft 431 kts
2026-04-17 09:03 46.99684 11.36564 36360 ft 430 kts
2026-04-17 09:03 47.02634 11.37195 36351 ft 428 kts
2026-04-17 09:03 47.05601 11.37534 36522 ft 423 kts 359°
2026-04-17 09:04 47.08517 11.37608 36838 ft 416 kts 356°
2026-04-17 09:04 47.11376 11.37596 37233 ft 409 kts 356°
2026-04-17 09:04 47.14210 11.37567 37557 ft 405 kts 356°
2026-04-17 09:04 47.17009 11.37534 37816 ft 402 kts 356°
2026-04-17 09:05 47.19803 11.37502 38026 ft 402 kts 356°
2026-04-17 09:05 47.22596 11.37470 38213 ft 403 kts 356°
2026-04-17 09:05 47.25414 11.37438 38310 ft 406 kts 356°
2026-04-17 09:06 47.31133 11.37375 38378 ft 416 kts 356°
2026-04-17 09:06 47.36971 11.37315 38303 ft 424 kts 356°
2026-04-17 09:07 47.42859 11.37258 38189 ft 425 kts 356°
2026-04-17 09:07 47.48771 11.37200 38032 ft 424 kts 356°
2026-04-17 09:08 47.54664 11.37140 37995 ft 424 kts 356°
2026-04-17 09:08 47.60558 11.37081 38136 ft 424 kts 356°
2026-04-17 09:09 47.66464 11.37021 38256 ft 424 kts 356°
2026-04-17 09:09 47.72343 11.36959 38315 ft 424 kts 356°
2026-04-17 09:10 47.81183 11.36863 38309 ft 423 kts 355°
2026-04-17 09:10 47.87057 11.36579 38298 ft 422 kts 352°
2026-04-17 09:11 47.92884 11.35760 38293 ft 421 kts 351°
2026-04-17 09:11 47.98708 11.34891 38290 ft 421 kts 351°
2026-04-17 09:12 48.04528 11.34023 38282 ft 421 kts 351°
2026-04-17 09:12 48.10368 11.33154 38274 ft 421 kts 351°
2026-04-17 09:13 48.16201 11.32285 38277 ft 420 kts 351°
2026-04-17 09:13 48.22001 11.31416 38277 ft 420 kts 351°
2026-04-17 09:14 48.27835 11.30542 38275 ft 420 kts 351°
2026-04-17 09:14 48.33638 11.29670 38273 ft 420 kts 351°
2026-04-17 09:15 48.39449 11.28796 38273 ft 420 kts 351°
2026-04-17 09:15 48.45249 11.27920 38277 ft 420 kts 351°
2026-04-17 09:16 48.51076 11.27039 38283 ft 420 kts 351°
2026-04-17 09:16 48.56869 11.26161 38292 ft 420 kts 351°
2026-04-17 09:17 48.62674 11.25278 38299 ft 420 kts 351°
2026-04-17 09:17 48.68492 11.24390 38302 ft 420 kts 351°
2026-04-17 09:18 48.74276 11.23507 38304 ft 420 kts 351°
2026-04-17 09:18 48.79989 11.21872 38306 ft 415 kts 340°
2026-04-17 09:19 48.85332 11.18620 38225 ft 413 kts 330°
2026-04-17 09:19 48.87834 11.16410 38017 ft 410 kts 325°
2026-04-17 09:19 48.90135 11.13894 37812 ft 406 kts 320°
2026-04-17 09:20 48.92269 11.11105 37603 ft 403 kts 317°
2026-04-17 09:20 48.94332 11.08253 37359 ft 400 kts 317°
2026-04-17 09:20 48.96370 11.05404 37031 ft 398 kts 317°
2026-04-17 09:20 48.98400 11.02558 36541 ft 399 kts 317°
2026-04-17 09:21 49.00431 10.99706 35917 ft 400 kts 317°
2026-04-17 09:21 49.02484 10.96821 35211 ft 402 kts 317°
2026-04-17 09:21 49.04535 10.93937 34491 ft 404 kts 317°
2026-04-17 09:21 49.06592 10.91042 33756 ft 406 kts 317°
2026-04-17 09:22 49.08657 10.88133 32984 ft 408 kts 317°
2026-04-17 09:22 49.10728 10.85211 32126 ft 409 kts 317°
2026-04-17 09:22 49.12806 10.82272 31297 ft 408 kts 317°
2026-04-17 09:22 49.14880 10.79333 30494 ft 408 kts 317°
2026-04-17 09:23 49.16958 10.76386 29691 ft 408 kts 317°
2026-04-17 09:23 49.19031 10.73435 28864 ft 408 kts 316°
2026-04-17 09:23 49.21023 10.70407 28291 ft 402 kts 315°
2026-04-17 09:23 49.22965 10.67367 27766 ft 401 kts 315°
2026-04-17 09:24 49.24904 10.64316 27242 ft 399 kts 315°
2026-04-17 09:24 49.26830 10.61277 26734 ft 397 kts 315°
2026-04-17 09:24 49.28744 10.58255 26211 ft 395 kts 315°
2026-04-17 09:24 49.30661 10.55224 25678 ft 393 kts 315°
2026-04-17 09:25 49.32552 10.52232 25141 ft 389 kts 315°
2026-04-17 09:25 49.34417 10.49226 24620 ft 386 kts 313°
2026-04-17 09:25 49.36160 10.46124 24108 ft 384 kts 310°
2026-04-17 09:25 49.37799 10.42860 23940 ft 388 kts 307°
2026-04-17 09:26 49.39366 10.39489 23815 ft 390 kts 307°
2026-04-17 09:26 49.40928 10.36076 23673 ft 391 kts 306°
2026-04-17 09:26 49.42497 10.32630 23459 ft 391 kts 306°
2026-04-17 09:26 49.44054 10.29207 23193 ft 390 kts 306°
2026-04-17 09:27 49.45607 10.25789 22936 ft 389 kts 306°
2026-04-17 09:27 49.47149 10.22393 22697 ft 388 kts 306°
2026-04-17 09:27 49.48686 10.19002 22457 ft 386 kts 306°
2026-04-17 09:27 49.50220 10.15614 22216 ft 385 kts 306°
2026-04-17 09:28 49.51750 10.12231 21971 ft 384 kts 306°
2026-04-17 09:28 49.53284 10.08839 21717 ft 382 kts 306°
2026-04-17 09:28 49.54797 10.05489 21466 ft 381 kts 306°
2026-04-17 09:28 49.56304 10.02146 21213 ft 379 kts 305°
2026-04-17 09:29 49.57812 9.98796 20952 ft 379 kts 305°
2026-04-17 09:29 49.59313 9.95462 20661 ft 378 kts 306°
2026-04-17 09:29 49.60809 9.92136 20338 ft 376 kts 306°
2026-04-17 09:29 49.62286 9.88844 19970 ft 374 kts 306°
2026-04-17 09:30 49.63770 9.85532 19524 ft 371 kts 306°
2026-04-17 09:30 49.65224 9.82282 19043 ft 368 kts 305°
2026-04-17 09:30 49.66667 9.79053 18538 ft 365 kts 305°
2026-04-17 09:30 49.68090 9.75863 18024 ft 360 kts 305°
2026-04-17 09:31 49.69504 9.72691 17499 ft 358 kts 305°
2026-04-17 09:31 49.70904 9.69545 16974 ft 355 kts 305°
2026-04-17 09:31 49.72293 9.66420 16454 ft 352 kts 305°
2026-04-17 09:31 49.73681 9.63296 15938 ft 350 kts 305°
2026-04-17 09:32 49.75049 9.60213 15426 ft 348 kts 305°
2026-04-17 09:32 49.76402 9.57163 14917 ft 344 kts 305°
2026-04-17 09:32 49.77745 9.54130 14414 ft 342 kts 305°
2026-04-17 09:32 49.79078 9.51118 13914 ft 340 kts 305°
2026-04-17 09:33 49.80396 9.48128 13421 ft 336 kts 305°
2026-04-17 09:33 49.81704 9.45157 12931 ft 335 kts 305°
2026-04-17 09:33 49.83016 9.42175 12437 ft 333 kts 304°
2026-04-17 09:33 49.84314 9.39221 11950 ft 332 kts 304°
2026-04-17 09:34 49.85538 9.36197 11479 ft 332 kts 299°
2026-04-17 09:34 49.86524 9.32932 11272 ft 336 kts 291°
2026-04-17 09:34 49.87336 9.29515 11246 ft 338 kts 294°
2026-04-17 09:34 49.88666 9.26572 10812 ft 338 kts 316°
2026-04-17 09:35 49.90456 9.24302 10377 ft 331 kts 321°
2026-04-17 09:35 49.92270 9.22095 9964 ft 326 kts 320°
2026-04-17 09:35 49.93999 9.19882 9561 ft 320 kts 319°
2026-04-17 09:35 49.95662 9.17650 9163 ft 314 kts 318°
2026-04-17 09:36 49.97277 9.15412 8773 ft 310 kts 317°
2026-04-17 09:36 49.98856 9.13182 8402 ft 305 kts 317°
2026-04-17 09:36 50.00403 9.10974 8038 ft 300 kts 317°
2026-04-17 09:36 50.01908 9.08809 7563 ft 291 kts 317°
2026-04-17 09:37 50.03371 9.06698 7105 ft 280 kts 316°
2026-04-17 09:37 50.04764 9.04685 6582 ft 271 kts 316°
2026-04-17 09:37 50.06130 9.02707 5892 ft 269 kts 316°
2026-04-17 09:37 50.07485 9.00742 5206 ft 267 kts 316°
2026-04-17 09:38 50.08828 8.98793 4615 ft 261 kts 316°
2026-04-17 09:38 50.10095 8.96955 4339 ft 248 kts 316°
2026-04-17 09:38 50.11184 8.94906 4146 ft 238 kts 295°
2026-04-17 09:38 50.11639 8.92496 4029 ft 225 kts 270°
2026-04-17 09:39 50.11454 8.90180 4018 ft 209 kts 253°
2026-04-17 09:39 50.11046 8.88068 4008 ft 202 kts 251°
2026-04-17 09:39 50.10594 8.86006 3946 ft 203 kts 249°
2026-04-17 09:39 50.10111 8.83944 3707 ft 202 kts 249°
2026-04-17 09:40 50.09621 8.81904 3446 ft 202 kts 248°
2026-04-17 09:40 50.09128 8.79876 3200 ft 201 kts 248°
2026-04-17 09:40 50.08634 8.77845 2951 ft 200 kts 248°
2026-04-17 09:40 50.08145 8.75834 2701 ft 199 kts 248°
2026-04-17 09:41 50.07658 8.73829 2440 ft 199 kts 248°
2026-04-17 09:41 50.07193 8.71856 2264 ft 186 kts 252°
2026-04-17 09:41 50.06906 8.69999 2077 ft 170 kts 257°
2026-04-17 09:41 50.06673 8.68243 1789 ft 163 kts 256°
2026-04-17 09:42 50.06376 8.66621 1577 ft 149 kts 251°
2026-04-17 09:42 50.06029 8.65160 1316 ft 140 kts 249°
2026-04-17 09:42 50.05697 8.63770 1007 ft 135 kts 251°
2026-04-17 09:42 50.05380 8.62400 895 ft 136 kts 250°
2026-04-17 09:43 50.05056 8.61017 801 ft 136 kts 250°
2026-04-17 09:43 50.04726 8.59647 626 ft 136 kts 251°
2026-04-17 09:43 50.04408 8.58274 446 ft 135 kts 251°
2026-04-17 09:43 50.04098 8.56975 386 ft 111 kts 251°
2026-04-17 09:44 50.03895 8.56104 380 ft 61 kts 259°
2026-04-17 09:44 50.03903 8.55716 379 ft 11 kts 278°
2026-04-17 09:44 50.03928 8.55635 379 ft 9 kts 332°
2026-04-17 09:44 50.03982 8.55672 380 ft 10 kts 62°
2026-04-17 09:45 50.04006 8.55772 380 ft 10 kts 67°
2026-04-17 09:45 50.04031 8.55875 381 ft 11 kts 72°
2026-04-17 09:45 50.04057 8.55985 381 ft 11 kts 71°
2026-04-17 09:45 50.04083 8.56101 382 ft 12 kts 72°
2026-04-17 09:46 50.04107 8.56224 383 ft 12 kts 64°
2026-04-17 09:46 50.04144 8.56340 383 ft 12 kts 66°
2026-04-17 09:46 50.04175 8.56463 384 ft 12 kts 71°
2026-04-17 09:46 50.04201 8.56590 385 ft 12 kts 72°
2026-04-17 09:47 50.04232 8.56714 386 ft 12 kts 71°
2026-04-17 09:47 50.04257 8.56844 387 ft 13 kts 75°
2026-04-17 09:47 50.04278 8.56978 388 ft 13 kts 70°
2026-04-17 09:47 50.04311 8.57102 389 ft 12 kts 68°
2026-04-17 09:48 50.04344 8.57223 390 ft 12 kts 67°
2026-04-17 09:48 50.04375 8.57345 391 ft 12 kts 68°
2026-04-17 09:48 50.04407 8.57466 392 ft 12 kts 67°
2026-04-17 09:48 50.04437 8.57588 393 ft 12 kts 71°
2026-04-17 09:49 50.04468 8.57714 394 ft 12 kts 71°
2026-04-17 09:49 50.04497 8.57840 395 ft 12 kts 67°
2026-04-17 09:49 50.04528 8.57960 396 ft 12 kts 65°
2026-04-17 09:49 50.04584 8.58026 396 ft 11 kts 354°
2026-04-17 09:50 50.04661 8.57986 396 ft 12 kts 342°
2026-04-17 09:50 50.04746 8.57966 397 ft 13 kts 25°
2026-04-17 09:50 50.04789 8.58084 397 ft 13 kts 72°
2026-04-17 09:50 50.04795 8.58196 398 ft 2 kts 174°
2026-04-17 09:51 50.04794 8.58196 398 ft 0 kts 194°
2026-04-17 09:51 50.04793 8.58195 398 ft 0 kts 189°
2026-04-17 09:51 50.04787 8.58196 398 ft 5 kts 171°
2026-04-17 09:51 50.04753 8.58217 398 ft 6 kts 165°
2026-04-17 09:52 50.04745 8.58221 398 ft 0 kts 162°